TimeCST,TemperatureF,Dew PointF,Humidity,Sea Level PressureIn,VisibilityMPH,Wind Direction,Wind SpeedMPH,Gust SpeedMPH,PrecipitationIn,Events,Conditions,WindDirDegrees,DateUTC
12:35 AM,42.8,26.6,53,30.15,10.0,North,3.5,-,N/A,,Clear,360,2013-02-19 06:35:00
12:55 AM,42.8,26.6,53,30.17,10.0,North,3.5,-,N/A,,Clear,360,2013-02-19 06:55:00
1:15 AM,42.8,26.6,53,30.17,10.0,North,3.5,-,N/A,,Clear,10,2013-02-19 07:15:00
1:35 AM,42.8,26.6,53,30.18,10.0,Calm,Calm,-,N/A,,Clear,0,2013-02-19 07:35:00
1:55 AM,41.0,26.6,57,30.18,10.0,Calm,Calm,-,N/A,,Clear,0,2013-02-19 07:55:00
2:15 AM,37.4,28.4,70,30.17,10.0,NE,4.6,-,N/A,,Clear,50,2013-02-19 08:15:00
2:35 AM,41.0,28.4,61,30.17,10.0,NE,4.6,-,N/A,,Clear,50,2013-02-19 08:35:00
2:55 AM,41.0,28.4,61,30.17,10.0,NE,6.9,-,N/A,,Clear,40,2013-02-19 08:55:00
3:15 AM,39.2,28.4,65,30.18,10.0,NE,3.5,-,N/A,,Clear,40,2013-02-19 09:15:00
3:35 AM,39.2,28.4,65,30.18,10.0,ENE,3.5,-,N/A,,Clear,60,2013-02-19 09:35:00
3:55 AM,37.4,28.4,70,30.19,10.0,NE,3.5,-,N/A,,Clear,50,2013-02-19 09:55:00
4:15 AM,37.4,28.4,70,30.19,10.0,NE,4.6,-,N/A,,Clear,40,2013-02-19 10:15:00
4:35 AM,37.4,28.4,70,30.19,10.0,NE,6.9,-,N/A,,Clear,50,2013-02-19 10:35:00
4:55 AM,37.4,28.4,70,30.19,10.0,ENE,5.8,-,N/A,,Clear,60,2013-02-19 10:55:00
5:15 AM,37.4,28.4,70,30.19,10.0,ENE,4.6,-,N/A,,Clear,60,2013-02-19 11:15:00
5:35 AM,35.6,28.4,75,30.20,10.0,ENE,6.9,-,N/A,,Clear,60,2013-02-19 11:35:00
5:55 AM,35.6,28.4,75,30.19,10.0,ENE,6.9,-,N/A,,Clear,60,2013-02-19 11:55:00
6:15 AM,35.6,28.4,75,30.21,10.0,ENE,3.5,-,N/A,,Clear,70,2013-02-19 12:15:00
6:35 AM,33.8,28.4,81,30.23,10.0,Calm,Calm,-,N/A,,Clear,0,2013-02-19 12:35:00
6:55 AM,33.8,28.4,81,30.25,10.0,Calm,Calm,-,N/A,,Clear,0,2013-02-19 12:55:00
7:15 AM,33.8,28.4,81,30.26,10.0,Calm,Calm,-,N/A,,Clear,0,2013-02-19 13:15:00
7:35 AM,32.0,28.4,87,30.27,10.0,Calm,Calm,-,N/A,,Clear,0,2013-02-19 13:35:00
7:55 AM,35.6,28.4,75,30.29,10.0,Calm,Calm,-,N/A,,Clear,0,2013-02-19 13:55:00
8:35 AM,39.2,28.4,65,30.32,10.0,Calm,Calm,-,N/A,,Clear,0,2013-02-19 14:35:00
8:55 AM,41.0,28.4,61,30.33,10.0,ENE,4.6,-,N/A,,Clear,70,2013-02-19 14:55:00
9:15 AM,41.0,28.4,61,30.34,10.0,ESE,3.5,-,N/A,,Clear,110,2013-02-19 15:15:00
10:15 AM,44.6,24.8,46,30.34,10.0,East,6.9,-,N/A,,Clear,100,2013-02-19 16:15:00
10:35 AM,44.6,23.0,43,30.34,10.0,East,8.1,-,N/A,,Clear,90,2013-02-19 16:35:00
10:55 AM,46.4,23.0,40,30.34,10.0,SE,6.9,-,N/A,,Clear,130,2013-02-19 16:55:00
11:15 AM,46.4,21.2,37,30.34,10.0,ESE,5.8,-,N/A,,Clear,110,2013-02-19 17:15:00
11:35 AM,50.0,23.0,35,30.34,10.0,East,5.8,-,N/A,,Clear,90,2013-02-19 17:35:00
11:55 AM,50.0,21.2,32,30.33,10.0,East,8.1,-,N/A,,Clear,90,2013-02-19 17:55:00
12:15 PM,51.8,21.2,30,30.32,10.0,SE,5.8,-,N/A,,Clear,140,2013-02-19 18:15:00
12:35 PM,53.6,23.0,30,30.31,10.0,East,6.9,-,N/A,,Clear,90,2013-02-19 18:35:00
12:55 PM,51.8,21.2,30,30.29,10.0,ESE,3.5,-,N/A,,Clear,110,2013-02-19 18:55:00
1:15 PM,53.6,21.2,28,30.28,10.0,South,5.8,-,N/A,,Clear,180,2013-02-19 19:15:00
1:35 PM,53.6,19.4,26,30.27,10.0,East,4.6,-,N/A,,Clear,90,2013-02-19 19:35:00
1:55 PM,55.4,21.2,26,30.26,10.0,ESE,9.2,-,N/A,,Clear,120,2013-02-19 19:55:00
2:15 PM,55.4,19.4,25,30.25,10.0,Calm,Calm,-,N/A,,Clear,0,2013-02-19 20:15:00
2:35 PM,57.2,19.4,23,30.24,10.0,ENE,8.1,-,N/A,,Clear,70,2013-02-19 20:35:00
2:55 PM,57.2,19.4,23,30.22,10.0,East,5.8,-,N/A,,Clear,90,2013-02-19 20:55:00
3:15 PM,57.2,19.4,23,30.22,10.0,ESE,10.4,20.7,N/A,,Clear,120,2013-02-19 21:15:00
3:35 PM,57.2,19.4,23,30.21,10.0,East,8.1,-,N/A,,Clear,100,2013-02-19 21:35:00
3:55 PM,55.4,19.4,25,30.20,10.0,ESE,10.4,-,N/A,,Clear,110,2013-02-19 21:55:00
4:15 PM,55.4,19.4,25,30.20,10.0,SE,11.5,-,N/A,,Clear,130,2013-02-19 22:15:00
4:35 PM,55.4,19.4,25,30.18,10.0,ESE,8.1,-,N/A,,Clear,110,2013-02-19 22:35:00
4:55 PM,55.4,19.4,25,30.19,10.0,ESE,8.1,-,N/A,,Clear,110,2013-02-19 22:55:00
5:15 PM,53.6,19.4,26,30.19,10.0,East,6.9,-,N/A,,Clear,90,2013-02-19 23:15:00
6:35 PM,50.0,21.2,32,30.19,10.0,Calm,Calm,-,N/A,,Clear,0,2013-02-20 00:35:00
7:15 PM,48.2,21.2,34,30.19,10.0,ESE,3.5,-,N/A,,Clear,110,2013-02-20 01:15:00
7:35 PM,46.4,21.2,37,30.19,10.0,East,3.5,-,N/A,,Clear,90,2013-02-20 01:35:00
8:15 PM,46.4,21.2,37,30.19,10.0,Calm,Calm,-,N/A,,Clear,0,2013-02-20 02:15:00
8:35 PM,46.4,21.2,37,30.20,10.0,East,3.5,-,N/A,,Clear,90,2013-02-20 02:35:00
8:55 PM,46.4,21.2,37,30.20,10.0,Calm,Calm,-,N/A,,Clear,0,2013-02-20 02:55:00
9:15 PM,46.4,21.2,37,30.21,10.0,Calm,Calm,-,N/A,,Clear,0,2013-02-20 03:15:00
9:35 PM,46.4,23.0,40,30.21,10.0,East,4.6,-,N/A,,Clear,90,2013-02-20 03:35:00
9:55 PM,46.4,23.0,40,30.21,10.0,East,3.5,-,N/A,,Mostly Cloudy,90,2013-02-20 03:55:00
10:15 PM,46.4,23.0,40,30.21,10.0,ESE,5.8,-,N/A,,Overcast,110,2013-02-20 04:15:00
10:35 PM,46.4,24.8,43,30.20,10.0,East,3.5,-,N/A,,Overcast,90,2013-02-20 04:35:00
10:55 PM,46.4,23.0,40,30.20,10.0,East,5.8,-,N/A,,Overcast,100,2013-02-20 04:55:00
11:15 PM,46.4,23.0,40,30.20,10.0,ENE,4.6,-,N/A,,Overcast,70,2013-02-20 05:15:00
11:35 PM,46.4,23.0,40,30.20,10.0,East,5.8,-,N/A,,Overcast,90,2013-02-20 05:35:00
11:55 PM,46.4,23.0,40,30.20,10.0,East,5.8,-,N/A,,Overcast,100,2013-02-20 05:55:00